Weather History for Peru, IN

Change the Weather History Date:

Sunday, June 16, 2013

  Actual Average Record
Temperature  
Mean Temperature 73 °F -  
Max Temperature 80 °F 78 °F 92 °F (2012)
Min Temperature 66 °F 62 °F 53 °F (1999)
Cooling Degree Days 8    
Growing Degree Days 23 (Base 50)    
Moisture  
Dew Point 66 °F    
Average Humidity 84    
Maximum Humidity 97    
Minimum Humidity 66    
Precipitation  
Precipitation 0.00 in - - ()
Sea Level Pressure  
Sea Level Pressure 29.95 in    
Wind  
Wind Speed 12 mph (WSW)    
Max Wind Speed 21 mph    
Max Gust Speed 30 mph    
Visibility 10 miles    
Events Rain , Thunderstorm    
Averages and records for this station are not official NWS values.
T = Trace of Precipitation, MM = Missing Value Source: NWS Daily Summary

Daily Weather History Graph

Daily Weather History Graph

Search for Another Location

Airport:

Trip Planner

Search our weather history database for the weather conditions in past years. The results will help you decide how hot, cold, wet, or windy it might be!

Date:

Astronomy

Jun. 16, 2013 Rise Set
Actual Time 6:13 AM EDT 9:17 PM EDT
Civil Twilight 5:39 AM EDT 9:51 PM EDT
Nautical Twilight 4:57 AM EDT 10:33 PM EDT
Astronomical Twilight 4:07 AM EDT 11:23 PM EDT
Moon 1:50 PM EDT (6/16) 1:20 AM EDT (6/16)
Length of Visible Light 16h 11m
Length of Day
15h 04m
Waxing Crescent, 49% of the Moon is Illuminated
Jun 16
Waxing Crescent
Jun 16
First Quarter
Jun 23
Full
Jun 30
Last Quarter
Jul 8
New

Hourly Weather History & Observations

Time (EDT) Temp. Heat Index Dew Point Humidity Pressure Visibility Wind Dir Wind Speed Gust Speed Precip Events Conditions
12:58 AM 66.9 °F - 65.3 °F 95% 29.95 in 10.0 mi SW 6.9 mph - N/A   Mostly Cloudy
1:58 AM 68.9 °F - 64.8 °F 87% 29.95 in 10.0 mi West 11.5 mph - N/A   Mostly Cloudy
1:59 AM 69.8 °F - 64.4 °F 83% 29.96 in 10.0 mi West 13.8 mph - N/A   Light Drizzle
2:06 AM 69.8 °F - 64.4 °F 83% 29.96 in 10.0 mi WSW 17.3 mph 21.9 mph N/A Rain , Thunderstorm Light Thunderstorms and Rain
2:08 AM 69.8 °F - 64.4 °F 83% 29.96 in 10.0 mi West 19.6 mph 29.9 mph N/A Thunderstorm Thunderstorm
2:16 AM 69.8 °F - 66.2 °F 88% 29.96 in 10.0 mi West 18.4 mph 29.9 mph N/A Rain , Thunderstorm Light Thunderstorms and Rain
2:21 AM 69.8 °F - 66.2 °F 88% 29.96 in 10.0 mi West 17.3 mph 27.6 mph N/A Rain Light Rain
2:40 AM 69.8 °F - 68.0 °F 94% 29.94 in 10.0 mi West 12.7 mph - N/A   Scattered Clouds
2:58 AM 68.9 °F - 67.8 °F 96% 29.94 in 10.0 mi West 12.7 mph - 0.00 in   Scattered Clouds
3:58 AM 68.2 °F - 65.1 °F 90% 29.92 in 10.0 mi SW 8.1 mph - N/A   Overcast
4:58 AM 66.9 °F - 64.9 °F 93% 29.90 in 10.0 mi SW 8.1 mph - N/A   Clear
5:57 AM 66.2 °F - 64.4 °F 94% 29.92 in 10.0 mi West 8.1 mph - N/A   Light Drizzle
5:58 AM 66.9 °F - 64.4 °F 92% 29.92 in 10.0 mi West 6.9 mph - N/A   Light Drizzle
6:42 AM 66.2 °F - 64.4 °F 94% 29.92 in 10.0 mi West 11.5 mph - N/A   Partly Cloudy
6:58 AM 66.9 °F - 64.2 °F 91% 29.93 in 10.0 mi West 15.0 mph - 0.00 in   Scattered Clouds
7:58 AM 67.8 °F - 64.6 °F 89% 29.95 in 10.0 mi West 12.7 mph - N/A   Mostly Cloudy
8:58 AM 68.5 °F - 65.3 °F 89% 29.96 in 10.0 mi West 8.1 mph - N/A   Scattered Clouds
9:23 AM 68.0 °F - 64.4 °F 88% 29.96 in 10.0 mi West 11.5 mph - N/A   Light Drizzle
9:46 AM 68.0 °F - 66.2 °F 94% 29.96 in 10.0 mi West 11.5 mph - N/A   Mostly Cloudy
9:57 AM 68.0 °F - 66.2 °F 94% 29.97 in 10.0 mi WSW 13.8 mph - N/A   Light Drizzle
9:58 AM 68.7 °F - 65.5 °F 89% 29.97 in 10.0 mi WSW 12.7 mph - 0.00 in   Light Drizzle
10:06 AM 69.8 °F - 66.2 °F 88% 29.96 in 10.0 mi WSW 13.8 mph - N/A   Mostly Cloudy
10:32 AM 71.6 °F - 64.4 °F 78% 29.95 in 10.0 mi West 15.0 mph - N/A   Partly Cloudy
10:58 AM 74.1 °F - 66.2 °F 76% 29.96 in 10.0 mi West 20.7 mph 24.2 mph 0.00 in   Clear
11:33 AM 75.2 °F - 66.2 °F 73% 29.97 in 10.0 mi West 16.1 mph 24.2 mph N/A   Mostly Cloudy
11:58 AM 75.0 °F - 66.9 °F 76% 29.96 in 10.0 mi West 17.3 mph - N/A   Overcast
12:48 PM 77.0 °F - 66.2 °F 69% 29.96 in 10.0 mi WSW 17.3 mph - N/A   Mostly Cloudy
12:58 PM 76.5 °F - 66.7 °F 72% 29.96 in 10.0 mi West 16.1 mph - N/A   Mostly Cloudy
1:48 PM 77.0 °F - 68.0 °F 74% 29.96 in 10.0 mi WSW 13.8 mph - N/A   Mostly Cloudy
1:53 PM 77.0 °F - 68.0 °F 74% 29.96 in 10.0 mi WSW 13.8 mph 20.7 mph N/A   Mostly Cloudy
1:58 PM 77.2 °F - 67.8 °F 73% 29.96 in 10.0 mi West 15.0 mph 20.7 mph N/A   Mostly Cloudy
2:58 PM 79.2 °F - 68.2 °F 69% 29.95 in 10.0 mi WSW 16.1 mph - N/A   Mostly Cloudy
3:58 PM 79.3 °F - 68.0 °F 68% 29.95 in 10.0 mi WSW 16.1 mph - N/A   Partly Cloudy
4:58 PM 80.2 °F 82.8 °F 67.8 °F 66% 29.94 in 10.0 mi West 16.1 mph - N/A   Partly Cloudy
5:58 PM 79.9 °F - 68.5 °F 68% 29.93 in 10.0 mi West 11.5 mph - N/A   Scattered Clouds
6:58 PM 79.0 °F - 68.4 °F 70% 29.92 in 10.0 mi West 13.8 mph - N/A   Partly Cloudy
7:58 PM 78.1 °F - 68.5 °F 72% 29.92 in 10.0 mi WSW 11.5 mph - N/A   Partly Cloudy
8:58 PM 75.2 °F - 69.4 °F 82% 29.91 in 10.0 mi SW 5.8 mph - N/A   Clear
9:58 PM 70.2 °F - 68.4 °F 94% 29.91 in 10.0 mi SW 6.9 mph - N/A   Clear
10:58 PM 71.1 °F - 68.7 °F 92% 29.95 in 10.0 mi South 5.8 mph - N/A   Mostly Cloudy
11:58 PM 69.4 °F - 68.5 °F 97% 29.93 in 10.0 mi SSW 8.1 mph - N/A   Clear